Weather History for KCHS - January, 2013

Change the Weather History Date:

Tuesday, January 15, 2013

  Actual Average Record
Temperature  
Mean Temperature 68 °F 48 °F  
Max Temperature 79 °F 59 °F 79 °F (2007)
Min Temperature 57 °F 37 °F 17 °F (1948)
Degree Days  
Heating Degree Days 0 17  
Month to date heating degree days 116 255  
Since 1 July heating degree days 814 993  
Cooling Degree Days 3 0  
Month to date cooling degree days 13 0  
Year to date cooling degree days 13 0  
Growing Degree Days 18 (Base 50)    
Moisture  
Dew Point 60 °F    
Average Humidity 77    
Maximum Humidity 100    
Minimum Humidity 54    
Precipitation  
Precipitation 0.00 in 0.12 in 1.40 in (1966)
Month to date precipitation 0.14 1.77  
Year to date precipitation 0.14 1.77  
Snow  
Snow 0.00 in -0.10 in - ()
Month to date snowfall 0.0  
Since 1 July snowfall 0.0 0.3  
Snow Depth 0.00 in    
Sea Level Pressure  
Sea Level Pressure 30.12 in    
Wind  
Wind Speed 7 mph (SSW)    
Max Wind Speed 16 mph    
Max Gust Speed 18 mph    
Visibility 9 miles    
Events Fog    
T = Trace of Precipitation, MM = Missing Value Source: NWS Daily Summary

Daily Weather History Graph

Daily Weather History Graph

Search for Another Location

Airport or City:

Trip Planner

Search our weather history database for the weather conditions in past years. The results will help you decide how hot, cold, wet, or windy it might be!

Date:

Astronomy

Jan. 15, 2013 Rise Set
Actual Time 7:22 AM EST 5:36 PM EST
Civil Twilight 6:56 AM EST 6:03 PM EST
Nautical Twilight 6:25 AM EST 6:33 PM EST
Astronomical Twilight 5:56 AM EST 7:03 PM EST
Moon 9:44 AM EST (1/15) 10:06 PM EST (1/15)
Length of Visible Light 11h 07m
Length of Day
10h 13m
Waxing Crescent, 19% of the Moon is Illuminated
Jan 15
Waxing Crescent
Jan 18
First Quarter
Jan 26
Full
Feb 3
Last Quarter
Feb 10
New

Hourly Weather History & Observations

Time (EST) Temp. Dew Point Humidity Pressure Visibility Wind Dir Wind Speed Gust Speed Precip Events Conditions
12:56 AM 59.0 °F 59.0 °F 100% 30.17 in 10.0 mi SSW 3.5 mph - N/A   Clear
1:56 AM 59.0 °F 59.0 °F 100% 30.17 in 6.0 mi SSW 4.6 mph - N/A Fog Shallow Fog
2:08 AM 60.8 °F 59.0 °F 94% 30.17 in 4.0 mi SSW 5.8 mph - N/A Fog Shallow Fog
2:22 AM 60.8 °F 60.8 °F 100% 30.16 in 0.5 mi SSW 6.9 mph - N/A Fog Fog
2:56 AM 61.0 °F 61.0 °F 100% 30.15 in 4.0 mi SSW 6.9 mph - N/A   Mostly Cloudy
3:56 AM 60.1 °F 59.0 °F 96% 30.14 in 7.0 mi South 4.6 mph - N/A   Scattered Clouds
4:56 AM 59.0 °F 57.9 °F 96% 30.12 in 7.0 mi South 5.8 mph - N/A   Mostly Cloudy
5:56 AM 59.0 °F 57.9 °F 96% 30.12 in 10.0 mi SW 3.5 mph - N/A   Mostly Cloudy
6:56 AM 57.9 °F 57.0 °F 97% 30.12 in 10.0 mi SW 5.8 mph - N/A   Mostly Cloudy
7:56 AM 60.1 °F 59.0 °F 96% 30.14 in 10.0 mi SSW 4.6 mph - N/A   Mostly Cloudy
8:56 AM 64.9 °F 62.1 °F 90% 30.17 in 10.0 mi SSW 6.9 mph - N/A   Mostly Cloudy
9:56 AM 71.1 °F 63.0 °F 75% 30.17 in 10.0 mi SSW 8.1 mph - N/A   Mostly Cloudy
10:56 AM 73.9 °F 63.0 °F 68% 30.16 in 10.0 mi SW 13.8 mph - N/A   Mostly Cloudy
11:56 AM 77.0 °F 63.0 °F 62% 30.13 in 10.0 mi SSW 8.1 mph - N/A   Mostly Cloudy
12:56 PM 77.0 °F 61.0 °F 58% 30.10 in 10.0 mi South 12.7 mph - N/A   Scattered Clouds
1:56 PM 78.1 °F 61.0 °F 56% 30.09 in 10.0 mi SSW 8.1 mph - N/A   Mostly Cloudy
2:56 PM 77.0 °F 61.0 °F 58% 30.08 in 10.0 mi South 11.5 mph - N/A   Mostly Cloudy
3:56 PM 73.9 °F 61.0 °F 64% 30.09 in 10.0 mi South 13.8 mph - N/A   Mostly Cloudy
4:56 PM 72.0 °F 62.1 °F 71% 30.09 in 10.0 mi South 8.1 mph - N/A   Mostly Cloudy
5:56 PM 66.9 °F 61.0 °F 81% 30.10 in 10.0 mi South 6.9 mph - N/A   Mostly Cloudy
6:56 PM 64.0 °F 60.1 °F 87% 30.11 in 10.0 mi South 6.9 mph - N/A   Mostly Cloudy
7:56 PM 62.1 °F 60.1 °F 93% 30.11 in 10.0 mi South 6.9 mph - N/A   Scattered Clouds
8:56 PM 63.0 °F 60.1 °F 90% 30.09 in 10.0 mi South 6.9 mph - N/A   Scattered Clouds
9:56 PM 63.0 °F 61.0 °F 93% 30.08 in 10.0 mi SSE 5.8 mph - N/A   Mostly Cloudy
10:56 PM 63.0 °F 61.0 °F 93% 30.06 in 10.0 mi SSE 6.9 mph - N/A   Partly Cloudy
11:56 PM 61.0 °F 60.1 °F 97% 30.05 in 8.0 mi SSW 4.6 mph - N/A   Clear